Weather in Ko Kud

Thailand     11°39′39″N   102°32′13″E
temp.,
°C
wind,
m/s
gust,
m/s
humid.,
%
clouds,
%
prec.,
mm/h
press.,
hPa
HPBL,
m
31 july, sat
sat3101:00+28w81081100 9.7 1009719
04:00+28w6879100 4.9 1008675
07:00+27wsw8980100 11.1 1010485
10:00+28wsw677879 1.1 1010592
13:00+28wsw6781100 5.4 1009442
16:00+28w7882100 3.6 1006665
19:00+28w7982100 5.4 1007703
22:00+28w7118377 2.3 1009862
1 august, sun
sun101:00+28w9118096 5.1 1008877
04:00+28w8117870 3.1 10071055
07:00+28w8107610 3.4 10081135
10:00+29w7975100 0.3 10091036
13:00+29w7876100 0.6 1008967
16:00+28w6780100 3.3 1006645
19:00+28wsw787872 6.2 1007705
22:00+29wsw8107825 1.9 1009977
2 august, mon
mon201:00+28w10127899 4.0 1007901
04:00+28w91277100 3.4 10071121
07:00+28w8107435 3.5 10081179
10:00+29w8107510 0.3 10091099
13:00+28wsw8977100 2.3 1008922
16:00+28wsw8978100 3.4 1006921
19:00+28wsw81080100 8.3 1007788
22:00+28wsw91280100 5.1 10091060
3 august, tue
tue301:00+28w101281100 6.9 10081044
04:00+28w91179100 0.9 10071116
07:00+28wsw91178100 1.9 1008998
10:00+28w91079100 1.1 1009942
13:00+28wsw81077100 3.1 10081023
16:00+28wsw8978100 0.6 1007988
19:00+28sw81080100 1.4 1008932
22:00+28wsw91181100 2.7 1010698
4 august, wed
wed401:00+28wsw91183100 9.0 1008647
04:00+28wsw91082100 9.8 1007799
07:00+28wsw91081100 11.4 1009905
10:00+28w9108093 1.6 1010894
13:00+28wsw9107999 2.6 1008909
16:00+28wsw897876 0.1 1006949
19:00+28sw9118098 3.5 1008762
22:00+28wsw81181100 4.7 1009872